| time (UTC) | temp F | wind direction | speed knots | gust knots | rain 1hr in | rain 24hr in | rain mn in | humidity % | barometer mb |
| 20260508142511 | 53 | 33 | 3.5 | 7.8 | 0.00 | 0.00 | 0.00 | 64 | 1012.8 |
| 20260508142011 | 53 | 37 | 3.5 | 9.6 | 0.00 | 0.00 | 0.00 | 63 | 1012.8 |
| 20260508141512 | 54 | 40 | 3.5 | 9.6 | 0.00 | 0.00 | 0.00 | 62 | 1012.7 |
| 20260508141011 | 55 | 40 | 3.5 | 8.7 | 0.00 | 0.00 | 0.00 | 62 | 1012.7 |
| 20260508140511 | 55 | 40 | 3.5 | 8.7 | 0.00 | 0.00 | 0.00 | 62 | 1012.7 |
| 20260508140012 | 55 | 43 | 2.6 | 7.0 | 0.00 | 0.00 | 0.00 | 61 | 1012.6 |
| 20260508135510 | 55 | 41 | 3.5 | 7.8 | 0.00 | 0.00 | 0.00 | 62 | 1012.6 |
| 20260508135011 | 56 | 35 | 3.5 | 7.8 | 0.00 | 0.00 | 0.00 | 63 | 1012.5 |
| 20260508134510 | 56 | 38 | 3.5 | 7.0 | 0.00 | 0.00 | 0.00 | 62 | 1012.5 |
| 20260508134011 | 56 | 41 | 2.6 | 7.0 | 0.00 | 0.00 | 0.00 | 60 | 1012.5 |
| 20260508133011 | 56 | 41 | 2.6 | 7.8 | 0.00 | 0.00 | 0.00 | 61 | 1012.5 |
| 20260508132012 | 55 | 47 | 3.5 | 7.0 | 0.00 | 0.00 | 0.00 | 63 | 1012.4 |
| 20260508131012 | 54 | 48 | 3.5 | 10.4 | 0.00 | 0.00 | 0.00 | 64 | 1012.4 |
| 20260508130510 | 54 | 44 | 4.3 | 10.4 | 0.00 | 0.00 | 0.00 | 65 | 1012.3 |
| 20260508130011 | 53 | 41 | 3.5 | 7.0 | 0.00 | 0.00 | 0.00 | 65 | 1012.3 |
| 20260508125511 | 54 | 45 | 3.5 | 7.0 | 0.00 | 0.00 | 0.00 | 64 | 1012.2 |
| 20260508125011 | 54 | 47 | 2.6 | 7.0 | 0.00 | 0.00 | 0.00 | 64 | 1012.3 |
| 20260508124511 | 53 | 39 | 2.6 | 5.2 | 0.00 | 0.00 | 0.00 | 64 | 1012.2 |
| 20260508124011 | 53 | 34 | 2.6 | 5.2 | 0.00 | 0.00 | 0.00 | 63 | 1012.2 |
| 20260508123511 | 54 | 40 | 2.6 | 7.8 | 0.00 | 0.00 | 0.00 | 64 | 1012.2 |
| 20260508122011 | 53 | 42 | 2.6 | 7.8 | 0.00 | 0.01 | 0.00 | 66 | 1012.1 |
| 20260508121510 | 53 | 39 | 2.6 | 7.8 | 0.00 | 0.01 | 0.00 | 66 | 1012.2 |
| 20260508121011 | 53 | 38 | 2.6 | 7.0 | 0.00 | 0.01 | 0.00 | 67 | 1012.2 |
| 20260508120511 | 52 | 39 | 2.6 | 6.1 | 0.00 | 0.01 | 0.00 | 67 | 1012.1 |
| 20260508120012 | 52 | 40 | 2.6 | 6.1 | 0.00 | 0.01 | 0.00 | 68 | 1012.1 |
| 20260508115511 | 52 | 40 | 2.6 | 7.8 | 0.00 | 0.01 | 0.00 | 68 | 1012.1 |
| 20260508115011 | 52 | 38 | 3.5 | 7.8 | 0.00 | 0.01 | 0.00 | 68 | 1012.1 |
| 20260508113511 | 52 | 42 | 5.2 | 5.2 | 0.00 | 0.01 | 0.00 | 72 | 1012.1 |
| 20260508113011 | 51 | 42 | 5.2 | 5.2 | 0.00 | 0.01 | 0.00 | 71 | 1012.0 |
| 20260508112510 | 51 | 42 | 5.2 | 5.2 | 0.00 | 0.01 | 0.00 | 71 | 1012.0 |
| 20260508112011 | 51 | 47 | 2.6 | 4.3 | 0.00 | 0.01 | 0.00 | 71 | 1011.9 |
| 20260508111510 | 52 | 47 | 2.6 | 4.3 | 0.00 | 0.01 | 0.00 | 70 | 1011.8 |
| 20260508110511 | 52 | 47 | 2.6 | 4.3 | 0.00 | 0.01 | 0.00 | 68 | 1011.8 |
| 20260508110010 | 52 | 47 | 2.6 | 4.3 | 0.00 | 0.01 | 0.00 | 68 | 1011.7 |
| 20260508105509 | 53 | 47 | 2.6 | 4.3 | 0.00 | 0.01 | 0.00 | 68 | 1011.8 |
| 20260508105011 | 53 | 47 | 2.6 | 4.3 | 0.00 | 0.01 | 0.00 | 68 | 1011.7 |
| 20260508104511 | 53 | 47 | 2.6 | 4.3 | 0.00 | 0.01 | 0.00 | 68 | 1011.7 |
| 20260508104012 | 52 | 47 | 2.6 | 4.3 | 0.00 | 0.01 | 0.00 | 74 | 1011.7 |
| 20260508103511 | 52 | 47 | 2.6 | 4.3 | 0.00 | 0.01 | 0.00 | 74 | 1011.7 |
| 20260508103011 | 52 | 47 | 2.6 | 4.3 | 0.00 | 0.01 | 0.00 | 74 | 1011.7 |
| 20260508102511 | 52 | 47 | 2.6 | 4.3 | 0.00 | 0.01 | 0.00 | 74 | 1011.6 |
| 20260508102011 | 52 | 47 | 2.6 | 4.3 | 0.00 | 0.01 | 0.00 | 74 | 1011.6 |
| 20260508101510 | 52 | 47 | 2.6 | 4.3 | 0.00 | 0.01 | 0.00 | 74 | 1011.6 |
| 20260508101011 | 51 | 47 | 2.6 | 4.3 | 0.00 | 0.01 | 0.00 | 74 | 1011.6 |
| 20260508100511 | 51 | 47 | 2.6 | 4.3 | 0.00 | 0.01 | 0.00 | 74 | 1011.6 |
| 20260508100011 | 51 | 48 | 2.6 | 4.3 | 0.00 | 0.01 | 0.00 | 74 | 1011.5 |
| 20260508095511 | 51 | 49 | 1.7 | 4.3 | 0.00 | 0.01 | 0.00 | 76 | 1011.5 |
| 20260508095011 | 51 | 42 | 2.6 | 5.2 | 0.00 | 0.01 | 0.00 | 76 | 1011.5 |
| 20260508094510 | 51 | 39 | 2.6 | 5.2 | 0.00 | 0.01 | 0.00 | 76 | 1011.5 |
| 20260508094011 | 51 | 43 | 2.6 | 5.2 | 0.00 | 0.01 | 0.00 | 79 | 1011.5 |
| 20260508093510 | 51 | 43 | 2.6 | 5.2 | 0.00 | 0.01 | 0.00 | 79 | 1011.4 |
| 20260508092511 | 50 | 46 | 2.6 | 5.2 | 0.00 | 0.01 | 0.00 | 80 | 1011.3 |
| 20260508092011 | 50 | 48 | 1.7 | 4.3 | 0.00 | 0.01 | 0.00 | 82 | 1011.3 |
| 20260508091510 | 50 | 50 | 1.7 | 4.3 | 0.00 | 0.01 | 0.00 | 83 | 1011.3 |
| 20260508091011 | 50 | 47 | 1.7 | 5.2 | 0.00 | 0.01 | 0.00 | 84 | 1011.3 |
| 20260508090510 | 50 | 40 | 1.7 | 5.2 | 0.00 | 0.01 | 0.00 | 84 | 1011.3 |
| 20260508090012 | 49 | 52 | 1.7 | 5.2 | 0.00 | 0.01 | 0.00 | 85 | 1011.2 |
| 20260508085511 | 49 | 54 | 2.6 | 4.3 | 0.00 | 0.01 | 0.00 | 85 | 1011.2 |
| 20260508085011 | 49 | 43 | 2.6 | 6.1 | 0.00 | 0.01 | 0.00 | 85 | 1011.2 |
| 20260508084510 | 49 | 40 | 2.6 | 6.1 | 0.00 | 0.01 | 0.00 | 86 | 1011.2 |
| 20260508084011 | 49 | 44 | 1.7 | 4.3 | 0.00 | 0.01 | 0.00 | 86 | 1011.1 |
| 20260508083010 | 49 | 42 | 1.7 | 4.3 | 0.00 | 0.01 | 0.00 | 87 | 1011.1 |
| 20260508082511 | 49 | 47 | 1.7 | 4.3 | 0.00 | 0.01 | 0.00 | 88 | 1011.1 |
| 20260508081511 | 48 | 41 | 1.7 | 5.2 | 0.00 | 0.01 | 0.00 | 88 | 1011.0 |
| 20260508081011 | 48 | 48 | 1.7 | 3.5 | 0.00 | 0.01 | 0.00 | 89 | 1011.0 |
| 20260508080511 | 48 | 43 | 1.7 | 3.5 | 0.00 | 0.01 | 0.00 | 89 | 1010.9 |
| 20260508080011 | 47 | 37 | 1.7 | 3.5 | 0.00 | 0.01 | 0.00 | 89 | 1010.9 |
| 20260508075510 | 47 | 48 | 0.9 | 2.6 | 0.00 | 0.01 | 0.00 | 89 | 1010.8 |
| 20260508075011 | 47 | 45 | 1.7 | 4.3 | 0.00 | 0.01 | 0.00 | 90 | 1010.8 |
| 20260508074511 | 47 | 38 | 1.7 | 4.3 | 0.00 | 0.01 | 0.00 | 89 | 1010.7 |
| 20260508073511 | 46 | 40 | 0.9 | 3.5 | 0.00 | 0.01 | 0.00 | 90 | 1010.6 |
| 20260508073011 | 46 | 41 | 0.9 | 2.6 | 0.00 | 0.01 | 0.00 | 90 | 1010.5 |
| 20260508072511 | 46 | 39 | 0.9 | 3.5 | 0.00 | 0.01 | 0.00 | 90 | 1010.5 |
| 20260508072011 | 46 | 33 | 0.9 | 3.5 | 0.00 | 0.01 | 0.00 | 90 | 1010.5 |
| 20260508071511 | 46 | 0 | 0.0 | 0.0 | 0.00 | 0.01 | 0.00 | 90 | 1010.3 |
| 20260508071011 | 46 | 0 | 0.0 | 0.0 | 0.00 | 0.01 | 0.00 | 90 | 1010.3 |
| 20260508070011 | 45 | 346 | 0.0 | 1.7 | 0.00 | 0.01 | 0.00 | 90 | 1010.1 |
| 20260508065011 | 45 | 0 | 0.0 | 0.0 | 0.00 | 0.01 | 0.00 | 90 | 1010.0 |
| 20260508064510 | 45 | 0 | 0.0 | 0.0 | 0.00 | 0.01 | 0.00 | 90 | 1010.0 |
| 20260508064011 | 45 | 0 | 0.0 | 0.0 | 0.00 | 0.01 | 0.00 | 90 | 1009.9 |
| 20260508063510 | 45 | 0 | 0.0 | 0.0 | 0.00 | 0.01 | 0.00 | 90 | 1009.9 |
| 20260508063011 | 45 | 0 | 0.0 | 0.0 | 0.00 | 0.01 | 0.00 | 90 | 1009.8 |
| 20260508062510 | 45 | 0 | 0.0 | 0.0 | 0.00 | 0.01 | 0.00 | 90 | 1009.7 |
| 20260508061511 | 44 | 0 | 0.0 | 0.0 | 0.00 | 0.01 | 0.00 | 90 | 1009.7 |
| 20260508060510 | 44 | 0 | 0.0 | 0.0 | 0.00 | 0.01 | 0.00 | 90 | 1009.6 |
| 20260508060011 | 44 | 0 | 0.0 | 0.0 | 0.00 | 0.01 | 0.00 | 90 | 1009.5 |
| 20260508055510 | 44 | 0 | 0.0 | 0.0 | 0.00 | 0.01 | 0.00 | 90 | 1009.4 |
| 20260508055010 | 44 | 0 | 0.0 | 0.0 | 0.00 | 0.01 | 0.00 | 90 | 1009.4 |
| 20260508054010 | 44 | 0 | 0.0 | 0.0 | 0.00 | 0.01 | 0.00 | 90 | 1009.3 |
| 20260508053510 | 44 | 0 | 0.0 | 0.0 | 0.00 | 0.01 | 0.00 | 90 | 1009.2 |
| 20260508052511 | 44 | 0 | 0.0 | 0.0 | 0.00 | 0.01 | 0.00 | 90 | 1009.3 |
| 20260508052011 | 44 | 0 | 0.0 | 0.0 | 0.00 | 0.01 | 0.00 | 90 | 1009.2 |
| 20260508051510 | 44 | 0 | 0.0 | 0.0 | 0.00 | 0.01 | 0.00 | 90 | 1009.2 |
| 20260508050510 | 44 | 0 | 0.0 | 0.0 | 0.00 | 0.01 | 0.00 | 90 | 1009.1 |
| 20260508045511 | 44 | 0 | 0.0 | 0.0 | 0.00 | 0.01 | 0.00 | 90 | 1009.1 |
| 20260508045011 | 44 | 0 | 0.0 | 0.0 | 0.00 | 0.01 | 0.00 | 90 | 1009.1 |
| 20260508044511 | 44 | 0 | 0.0 | 0.0 | 0.00 | 0.01 | 0.00 | 89 | 1009.1 |
| 20260508044010 | 44 | 0 | 0.0 | 0.0 | 0.00 | 0.01 | 0.00 | 89 | 1009.0 |
| 20260508043011 | 44 | 0 | 0.0 | 0.0 | 0.00 | 0.01 | 0.00 | 89 | 1008.9 |
| 20260508042511 | 44 | 0 | 0.0 | 0.0 | 0.00 | 0.01 | 0.00 | 89 | 1008.9 |
| 20260508042011 | 44 | 0 | 0.0 | 0.0 | 0.00 | 0.01 | 0.00 | 89 | 1008.9 |
| 20260508041011 | 44 | 0 | 0.0 | 0.0 | 0.00 | 0.01 | 0.00 | 89 | 1008.7 |
| 20260508040510 | 44 | 0 | 0.0 | 0.0 | 0.00 | 0.01 | 0.00 | 89 | 1008.7 |
| 20260508040011 | 44 | 0 | 0.0 | 0.0 | 0.00 | 0.01 | 0.00 | 89 | 1008.7 |
| 20260508035510 | 44 | 0 | 0.0 | 0.0 | 0.00 | 0.01 | 0.00 | 89 | 1008.7 |
| 20260508035010 | 44 | 0 | 0.0 | 0.0 | 0.00 | 0.01 | 0.00 | 89 | 1008.7 |
| 20260508034510 | 44 | 0 | 0.0 | 0.0 | 0.00 | 0.01 | 0.00 | 89 | 1008.7 |
| 20260508034010 | 44 | 0 | 0.0 | 0.0 | 0.00 | 0.01 | 0.00 | 89 | 1008.7 |
| 20260508033011 | 44 | 0 | 0.0 | 0.0 | 0.00 | 0.01 | 0.00 | 89 | 1008.7 |
| 20260508032510 | 44 | 0 | 0.0 | 0.0 | 0.00 | 0.01 | 0.00 | 89 | 1008.6 |
| 20260508032011 | 44 | 0 | 0.0 | 0.0 | 0.00 | 0.01 | 0.00 | 89 | 1008.6 |
| 20260508031511 | 44 | 0 | 0.0 | 0.0 | 0.00 | 0.01 | 0.00 | 89 | 1008.6 |
| 20260508031011 | 44 | 0 | 0.0 | 0.0 | 0.00 | 0.01 | 0.00 | 89 | 1008.6 |
| 20260508030511 | 44 | 0 | 0.0 | 0.0 | 0.00 | 0.01 | 0.00 | 89 | 1008.6 |
| 20260508030011 | 44 | 0 | 0.0 | 0.0 | 0.00 | 0.01 | 0.00 | 89 | 1008.6 |
| 20260508025011 | 44 | 0 | 0.0 | 0.0 | 0.00 | 0.01 | 0.00 | 89 | 1008.5 |
| 20260508024011 | 44 | 0 | 0.0 | 0.0 | 0.00 | 0.01 | 0.00 | 89 | 1008.5 |
| 20260508023511 | 44 | 0 | 0.0 | 0.0 | 0.00 | 0.01 | 0.00 | 89 | 1008.5 |
| 20260508023010 | 44 | 0 | 0.0 | 0.0 | 0.00 | 0.01 | 0.00 | 89 | 1008.4 |
| 20260508022511 | 44 | 0 | 0.0 | 0.0 | 0.00 | 0.01 | 0.00 | 89 | 1008.4 |
| 20260508021510 | 44 | 0 | 0.0 | 0.0 | 0.00 | 0.01 | 0.00 | 89 | 1008.3 |
| 20260508021011 | 44 | 0 | 0.0 | 0.0 | 0.00 | 0.01 | 0.00 | 89 | 1008.3 |
| 20260508020510 | 44 | 0 | 0.0 | 0.0 | 0.00 | 0.01 | 0.00 | 89 | 1008.3 |
| 20260508020011 | 45 | 0 | 0.0 | 0.0 | 0.00 | 0.01 | 0.00 | 89 | 1008.3 |
| 20260508015511 | 44 | 0 | 0.0 | 0.0 | 0.00 | 0.01 | 0.00 | 89 | 1008.2 |
| 20260508015011 | 45 | 0 | 0.0 | 0.0 | 0.00 | 0.01 | 0.00 | 89 | 1008.2 |
| 20260508014510 | 45 | 0 | 0.0 | 0.0 | 0.00 | 0.01 | 0.00 | 89 | 1008.2 |
| 20260508014011 | 45 | 0 | 0.0 | 0.0 | 0.00 | 0.01 | 0.00 | 89 | 1008.2 |
| 20260508013511 | 45 | 0 | 0.0 | 0.0 | 0.00 | 0.01 | 0.00 | 89 | 1008.2 |
| 20260508013011 | 45 | 0 | 0.0 | 0.0 | 0.00 | 0.01 | 0.00 | 88 | 1008.2 |
| 20260508012010 | 45 | 0 | 0.0 | 0.0 | 0.00 | 0.01 | 0.00 | 88 | 1008.2 |
| 20260508011510 | 45 | 0 | 0.0 | 0.0 | 0.00 | 0.01 | 0.00 | 88 | 1008.2 |
| 20260508011010 | 45 | 0 | 0.0 | 0.0 | 0.00 | 0.01 | 0.00 | 88 | 1008.2 |
| 20260508010011 | 45 | 0 | 0.0 | 0.0 | 0.00 | 0.01 | 0.00 | 88 | 1008.3 |
| 20260508005511 | 45 | 0 | 0.0 | 0.0 | 0.00 | 0.01 | 0.00 | 88 | 1008.2 |
| 20260508005011 | 45 | 0 | 0.0 | 0.0 | 0.00 | 0.01 | 0.00 | 88 | 1008.3 |
| 20260508004011 | 45 | 0 | 0.0 | 0.0 | 0.00 | 0.01 | 0.00 | 88 | 1008.2 |
| 20260508003511 | 45 | 0 | 0.0 | 0.0 | 0.00 | 0.01 | 0.00 | 88 | 1008.2 |
| 20260508002511 | 45 | 0 | 0.0 | 0.0 | 0.00 | 0.01 | 0.00 | 88 | 1008.2 |
| 20260508002011 | 45 | 0 | 0.0 | 0.0 | 0.00 | 0.01 | 0.00 | 88 | 1008.2 |
| 20260508001510 | 45 | 0 | 0.0 | 0.0 | 0.00 | 0.01 | 0.00 | 88 | 1008.1 |
| 20260508001010 | 45 | 0 | 0.0 | 0.0 | 0.00 | 0.01 | 0.00 | 88 | 1008.1 |
| 20260508000511 | 45 | 0 | 0.0 | 0.0 | 0.00 | 0.01 | 0.00 | 87 | 1008.2 |
| 20260507235511 | 45 | 266 | 0.0 | 2.6 | 0.00 | 0.01 | 0.00 | 87 | 1008.1 |
| 20260507235011 | 45 | 266 | 0.0 | 2.6 | 0.00 | 0.01 | 0.00 | 87 | 1008.1 |
| 20260507233011 | 45 | 265 | 0.9 | 2.6 | 0.00 | 0.01 | 0.00 | 87 | 1008.1 |
| 20260507231511 | 46 | 257 | 0.9 | 2.6 | 0.00 | 0.01 | 0.00 | 86 | 1008.0 |
| 20260507231011 | 46 | 251 | 0.9 | 3.5 | 0.00 | 0.01 | 0.00 | 86 | 1008.0 |
| 20260507230510 | 46 | 251 | 0.9 | 3.5 | 0.00 | 0.01 | 0.00 | 86 | 1008.0 |
| 20260507230013 | 46 | 255 | 0.9 | 2.6 | 0.00 | 0.01 | 0.00 | 86 | 1008.0 |
| 20260507225511 | 45 | 255 | 0.0 | 2.6 | 0.00 | 0.01 | 0.01 | 86 | 1007.9 |
| 20260507225010 | 45 | 0 | 0.0 | 0.0 | 0.00 | 0.01 | 0.01 | 85 | 1007.9 |
| 20260507224010 | 45 | 0 | 0.0 | 0.0 | 0.00 | 0.01 | 0.01 | 85 | 1007.8 |
| 20260507223010 | 46 | 0 | 0.0 | 0.0 | 0.00 | 0.01 | 0.01 | 85 | 1007.7 |
| 20260507222511 | 46 | 0 | 0.0 | 0.0 | 0.00 | 0.01 | 0.01 | 86 | 1007.7 |
| 20260507222011 | 45 | 0 | 0.0 | 0.0 | 0.00 | 0.01 | 0.01 | 86 | 1007.7 |
| 20260507221510 | 45 | 0 | 0.0 | 0.0 | 0.00 | 0.01 | 0.01 | 86 | 1007.7 |
| 20260507221011 | 45 | 0 | 0.0 | 0.0 | 0.00 | 0.01 | 0.01 | 86 | 1007.7 |
| 20260507220510 | 45 | 0 | 0.0 | 0.0 | 0.00 | 0.01 | 0.01 | 86 | 1007.6 |
| 20260507220011 | 45 | 0 | 0.0 | 0.0 | 0.00 | 0.01 | 0.01 | 86 | 1007.5 |
| 20260507215011 | 46 | 0 | 0.0 | 0.0 | 0.00 | 0.01 | 0.01 | 86 | 1007.6 |
| 20260507214510 | 46 | 0 | 0.0 | 0.0 | 0.00 | 0.01 | 0.01 | 86 | 1007.5 |
| 20260507214011 | 46 | 0 | 0.0 | 0.0 | 0.00 | 0.01 | 0.01 | 86 | 1007.6 |
| 20260507213010 | 46 | 0 | 0.0 | 0.0 | 0.00 | 0.01 | 0.01 | 86 | 1007.4 |
| 20260507212510 | 46 | 0 | 0.0 | 0.0 | 0.00 | 0.01 | 0.01 | 86 | 1007.4 |
| 20260507212011 | 46 | 0 | 0.0 | 0.0 | 0.00 | 0.01 | 0.01 | 86 | 1007.3 |
| 20260507211511 | 46 | 0 | 0.0 | 0.0 | 0.00 | 0.01 | 0.01 | 86 | 1007.4 |
| 20260507211012 | 46 | 0 | 0.0 | 0.0 | 0.00 | 0.01 | 0.01 | 86 | 1007.4 |
| 20260507210510 | 46 | 0 | 0.0 | 0.0 | 0.00 | 0.01 | 0.01 | 86 | 1007.4 |
| 20260507210011 | 46 | 0 | 0.0 | 0.0 | 0.00 | 0.01 | 0.01 | 86 | 1007.3 |
| 20260507205511 | 46 | 257 | 0.0 | 0.9 | 0.00 | 0.01 | 0.01 | 86 | 1007.3 |
| 20260507204011 | 46 | 265 | 0.9 | 2.6 | 0.00 | 0.01 | 0.01 | 85 | 1007.1 |
| 20260507203011 | 46 | 270 | 0.9 | 2.6 | 0.00 | 0.01 | 0.01 | 85 | 1006.9 |
| 20260507202510 | 47 | 266 | 0.9 | 2.6 | 0.00 | 0.01 | 0.01 | 84 | 1006.9 |
| 20260507202011 | 47 | 263 | 0.9 | 2.6 | 0.00 | 0.01 | 0.01 | 84 | 1006.9 |
| 20260507201511 | 47 | 265 | 0.9 | 2.6 | 0.00 | 0.01 | 0.01 | 84 | 1006.9 |
| 20260507201011 | 47 | 267 | 0.9 | 2.6 | 0.00 | 0.01 | 0.01 | 84 | 1006.9 |
| 20260507200511 | 47 | 267 | 0.9 | 2.6 | 0.00 | 0.01 | 0.01 | 83 | 1006.8 |
| 20260507195511 | 48 | 266 | 0.9 | 2.6 | 0.00 | 0.01 | 0.01 | 83 | 1006.8 |
| 20260507195011 | 48 | 266 | 0.9 | 4.3 | 0.00 | 0.01 | 0.01 | 82 | 1006.7 |
| 20260507194510 | 48 | 259 | 1.7 | 4.3 | 0.00 | 0.01 | 0.01 | 82 | 1006.6 |
| 20260507194010 | 48 | 256 | 1.7 | 4.3 | 0.00 | 0.01 | 0.01 | 82 | 1006.5 |
| 20260507193510 | 48 | 255 | 1.7 | 5.2 | 0.00 | 0.01 | 0.01 | 82 | 1006.5 |
| 20260507193011 | 49 | 254 | 1.7 | 5.2 | 0.00 | 0.01 | 0.01 | 82 | 1006.4 |
| 20260507192511 | 49 | 254 | 1.7 | 4.3 | 0.00 | 0.01 | 0.01 | 81 | 1006.5 |
| 20260507192011 | 49 | 258 | 1.7 | 4.3 | 0.00 | 0.01 | 0.01 | 81 | 1006.5 |
| 20260507191510 | 49 | 262 | 1.7 | 4.3 | 0.00 | 0.01 | 0.01 | 81 | 1006.4 |
| 20260507191010 | 49 | 257 | 1.7 | 4.3 | 0.00 | 0.01 | 0.01 | 81 | 1006.4 |
| 20260507190510 | 49 | 256 | 1.7 | 4.3 | 0.00 | 0.01 | 0.01 | 81 | 1006.3 |
| 20260507190010 | 49 | 258 | 1.7 | 5.2 | 0.00 | 0.01 | 0.01 | 81 | 1006.3 |
| 20260507185510 | 49 | 257 | 2.6 | 5.2 | 0.00 | 0.01 | 0.01 | 81 | 1006.3 |
| 20260507185011 | 50 | 259 | 1.7 | 4.3 | 0.00 | 0.01 | 0.01 | 81 | 1006.2 |
| 20260507184011 | 50 | 266 | 1.7 | 4.3 | 0.00 | 0.01 | 0.01 | 81 | 1006.1 |
| 20260507183510 | 50 | 266 | 1.7 | 3.5 | 0.00 | 0.01 | 0.01 | 81 | 1006.1 |
| 20260507183010 | 50 | 263 | 1.7 | 4.3 | 0.00 | 0.01 | 0.01 | 81 | 1006.1 |
| 20260507182510 | 50 | 264 | 1.7 | 5.2 | 0.00 | 0.01 | 0.01 | 81 | 1006.0 |
| 20260507181511 | 50 | 256 | 2.6 | 6.1 | 0.00 | 0.01 | 0.01 | 81 | 1006.0 |
| 20260507180510 | 50 | 266 | 2.6 | 4.3 | 0.00 | 0.01 | 0.01 | 81 | 1006.0 |
| 20260507180011 | 50 | 267 | 2.6 | 4.3 | 0.00 | 0.01 | 0.01 | 80 | 1005.9 |
| 20260507175511 | 50 | 278 | 1.7 | 3.5 | 0.00 | 0.01 | 0.01 | 80 | 1005.9 |
| 20260507175010 | 51 | 278 | 1.7 | 3.5 | 0.00 | 0.01 | 0.01 | 78 | 1005.9 |
| 20260507174010 | 51 | 268 | 0.9 | 3.5 | 0.00 | 0.01 | 0.01 | 77 | 1005.8 |
| 20260507173510 | 51 | 266 | 1.7 | 5.2 | 0.00 | 0.01 | 0.01 | 77 | 1005.8 |
| 20260507173011 | 51 | 265 | 2.6 | 5.2 | 0.00 | 0.01 | 0.01 | 75 | 1005.7 |
| 20260507172511 | 52 | 269 | 1.7 | 5.2 | 0.00 | 0.01 | 0.01 | 75 | 1005.8 |
| 20260507171509 | 53 | 262 | 2.6 | 7.0 | 0.00 | 0.01 | 0.01 | 73 | 1005.8 |
| 20260507171011 | 53 | 255 | 4.3 | 7.0 | 0.00 | 0.01 | 0.01 | 72 | 1005.7 |
| 20260507170511 | 53 | 253 | 3.5 | 7.0 | 0.00 | 0.01 | 0.01 | 70 | 1005.6 |
| 20260507170011 | 53 | 247 | 3.5 | 6.1 | 0.00 | 0.01 | 0.01 | 70 | 1005.7 |
| 20260507165010 | 53 | 239 | 3.5 | 7.8 | 0.00 | 0.01 | 0.01 | 69 | 1005.7 |
| 20260507164011 | 54 | 242 | 2.6 | 6.1 | 0.00 | 0.01 | 0.01 | 70 | 1005.6 |
| 20260507162510 | 55 | 243 | 3.5 | 7.8 | 0.00 | 0.01 | 0.01 | 72 | 1005.6 |
| 20260507162010 | 55 | 235 | 2.6 | 7.8 | 0.00 | 0.01 | 0.01 | 73 | 1005.6 |
| 20260507161510 | 54 | 236 | 3.5 | 7.8 | 0.00 | 0.01 | 0.01 | 75 | 1005.6 |
| 20260507161011 | 53 | 227 | 3.5 | 6.1 | 0.00 | 0.01 | 0.01 | 74 | 1005.6 |
| 20260507160511 | 53 | 230 | 3.5 | 6.1 | 0.00 | 0.01 | 0.01 | 74 | 1005.5 |
| 20260507160011 | 53 | 223 | 3.5 | 10.4 | 0.00 | 0.01 | 0.01 | 73 | 1005.5 |
| 20260507155510 | 53 | 223 | 3.5 | 10.4 | 0.00 | 0.01 | 0.01 | 75 | 1005.5 |
| 20260507155011 | 53 | 237 | 4.3 | 10.4 | 0.00 | 0.01 | 0.01 | 75 | 1005.5 |
| 20260507154510 | 53 | 250 | 3.5 | 10.4 | 0.00 | 0.01 | 0.01 | 74 | 1005.5 |
| 20260507152510 | 54 | 228 | 3.5 | 8.7 | 0.00 | 0.01 | 0.01 | 68 | 1005.4 |
| 20260507152010 | 54 | 230 | 3.5 | 7.0 | 0.00 | 0.01 | 0.01 | 66 | 1005.4 |
| 20260507151011 | 56 | 226 | 3.5 | 9.6 | 0.00 | 0.01 | 0.01 | 65 | 1005.4 |
| 20260507150510 | 56 | 218 | 3.5 | 9.6 | 0.00 | 0.01 | 0.01 | 65 | 1005.4 |
| 20260507145010 | 55 | 218 | 2.6 | 7.8 | 0.00 | 0.01 | 0.01 | 65 | 1005.5 |
| 20260507144510 | 55 | 205 | 2.6 | 7.0 | 0.00 | 0.01 | 0.01 | 65 | 1005.5 |
| 20260507144010 | 56 | 205 | 4.3 | 13.9 | 0.00 | 0.01 | 0.01 | 66 | 1005.5 |
| 20260507143511 | 55 | 205 | 4.3 | 13.9 | 0.00 | 0.01 | 0.01 | 66 | 1005.5 |
| 20260507143010 | 55 | 205 | 4.3 | 13.9 | 0.00 | 0.01 | 0.01 | 66 | 1005.5 |